Home   Weather   Modesto   Past weeks
Flag for USA

Past Weather in Modesto, California, USA — February 2019

Now
68 °F

Clear.


Feels Like: 68 °F
Forecast: 91 / 63 °F
Wind: 5 mph from North

Location: Modesto City-County-Sham Field

Current Time: Jun 25, 2019 at 5:21:48 am

Latest Report: Jun 25, 2019 at 4:53 am


Visibility: 10 mi

Pressure: 29.74 "Hg

Humidity: 45%

Dew Point: 46 °F

Location of ModestoLocation

February 2019 Weather in Modesto — Graph

°F

High & Low Weather Summary for February 2019

 TemperatureHumidityPressure
High66 °F (Feb 27, 2:53 pm)100% (Feb 1, 12:53 am)30.36 "Hg (Feb 1, 12:53 am)
Low31 °F (Feb 6, 5:53 am)31% (Feb 22, 3:53 pm)29.42 "Hg (Feb 14, 5:53 am)
Average48 °F72%29.97 "Hg
* Reported Feb 1 12:53 am — Feb 28 11:53 pm, Modesto. Weather by CustomWeather, © 2019

Note: Actual official high and low records may vary slightly from our data, if they occured in-between our weather recording intervals... More about our weather records

Advertising

Modesto Weather History for February 1, 2019

Scroll right to see more
 ConditionsComfort  
Time TempWeatherWind HumidityBarometerVisibility
12:53 am
Fri, Feb 1
48 °FFog.7 mph100%29.93 "Hg4 mi
1:53 am48 °FFog.5 mph96%29.94 "Hg5 mi
2:53 am48 °FFog.6 mph93%29.93 "Hg6 mi
3:53 am49 °FPassing clouds.5 mph97%29.92 "Hg7 mi
4:53 am50 °FPassing clouds.No wind93%29.92 "Hg7 mi
5:53 am48 °FFog.6 mph96%29.90 "Hg5 mi
6:53 am48 °FFog.7 mph96%29.90 "Hg6 mi
7:53 am50 °FFog.3 mph93%29.91 "Hg6 mi
8:53 am53 °FPassing clouds.9 mph86%29.90 "Hg7 mi
9:53 am56 °FSunny.8 mph81%29.89 "Hg9 mi
10:53 am57 °FSunny.6 mph78%29.89 "Hg10 mi
11:53 am57 °FSunny.7 mph78%29.87 "Hg10 mi
12:53 pm59 °FSunny.7 mph69%29.84 "Hg9 mi
1:53 pm59 °FSunny.12 mph67%29.82 "Hg10 mi
2:53 pm58 °FPassing clouds.10 mph75%29.81 "Hg10 mi
3:53 pm59 °FOvercast.13 mph72%29.78 "Hg10 mi
4:53 pm59 °FLight rain. Overcast.9 mph72%29.76 "Hg10 mi
5:53 pm57 °FLight rain. Mostly cloudy.8 mph83%29.74 "Hg9 mi
6:53 pm56 °FLight rain. Overcast.12 mph84%29.73 "Hg10 mi
7:53 pm56 °FLight rain. Overcast.10 mph84%29.72 "Hg10 mi
8:53 pm54 °FLight rain. Overcast.8 mph93%29.72 "Hg7 mi
9:53 pm54 °FLight rain. Fog.15 mph93%29.70 "Hg6 mi
10:53 pm54 °FLight rain. Overcast.15 mph90%29.66 "Hg10 mi
11:53 pm55 °FLight rain. Mostly cloudy.13 mph87%29.65 "Hg10 mi
Weather by CustomWeather, © 2019

See weather overview